{"data":{"norad_id":59410,"epoch":"2026-09-21T08:59:37.139424Z","epoch_age_seconds":89788,"freshness":"FRESH","line1":"1 59410U 24064N   26264.37473541 -.00000447  00000+0 -67179-5 0  9990","line2":"2 59410  43.0040  31.0114 0002090 271.2048  88.8564 15.27569167139154","mean_motion":15.27569167,"eccentricity":0.000209,"inclination_deg":43.004,"raan_deg":31.0114,"arg_perigee_deg":271.2048,"mean_anomaly_deg":88.8564,"bstar":-6.7179e-6,"rev_number":13915,"period_min":94.267417221311,"perigee_km":481.64753945687,"apogee_km":484.51552880414,"semimajor_km":6861.2185341305,"source":"CELESTRAK","updated_at":"2026-09-22T09:00:48.915933Z"}}